Location: Arapaho Elementary School
(32.9607°N, 96.7625°W)
Time: 12:36:01
(UTC+00:00)

Cosmos 2228 Rocket - Pass Details

Date: 10 July 2022
Orbit: 618 x 651 km, 82.5° (Epoch: 13 August)

Event Time Altitude Azimuth Distance (km) Brightness Sun altitude
Rises 08:11:15 0° 16° (NNE) 2,930 7.7 -30.0°
Reaches altitude 10° 08:14:26 10° 40° (NE) 2,024 6.6 -29.7°
Maximum altitude 08:16:58 15° 75° (ENE) 1,726 5.8 -29.4°
Enters shadow 08:19:07 11° 105° (ESE) 1,946 5.7 -29.2°
